User: anonymous   Login
Location: Kott?ru
(16.6209°N, 80.6208°E)
Time: 03:55:20
(UTC+00:00)
Language:

SPROUT - Orbit

View from above orbital plane
View from above orbital plane
View from above satellite
View from above satellite

Ground track
Ground track

The orbit data is extracted from the following two-line orbital elements,

1 39770U 14029E   23153.57057556  .00018892  00000-0  14536-2 0  9995
2 39770  97.9831 280.3767 0006132 351.6301   8.4819 15.01720803489962
Epoch (UTC): 02 June 2023 13:41:37
Eccentricity: 0.0006132
inclination: 97.9831°
perigee height: 557 km
apogee height: 566 km
right ascension of ascending node: 280.3767°
argument of perigee: 351.6301°
revolutions per day: 15.01720803
mean anomaly at epoch: 8.4819°
orbit number at epoch: 48996

The dashed part of the orbit path shows where the satellite is in the earth's shadow,  

DLR